星链-1418 (STARLINK-1418 )

导读 | 豆包AI

STARLINK-1418是美国太空探索技术公司发射的星链低轨卫星,于2020年6月4日升空,属于星链星座第九批组网卫星。星链星座旨在为全球提供高速互联网接入服务,这颗卫星承担着补充星座网络覆盖、提升服务稳定性的任务,是星链全球组网进程中的组成部分。

基本信息
目录编号:
45708
目录名称:
STARLINK-1418
国际标识:
2020-035BD
轨道中心:
EARTH
卫星名称:
星链-1418
卫星全名:
星链-1418 (STARLINK-1418 )
卫星状态:
已陨落 最后检测时间 2025-04-12
发射日期:
2020-06-04 UTC
国别 :
美国 (US)
星等 :
--
轨道信息
数据来源 国际轨道数据
星历时间: 2025-04-12T08:20:10+0800
轨道信息已过期357天
半长轴: 6550.385km
偏心率: 0.0004772
轨道倾角: 53.035°
近地点辐角 184.847°
升交点赤经 29.524°
平近点角 279.478°
近地点: 169.124km
远地点: 175.376km
周期: 87.935分钟
每日圈数: 16.375801
详细信息
固有亮度:
5
最大亮度:
2.5
卫星平台:
Starlink V1.0
覆盖范围:
全球
运营商:
太空探索技术公司
运营商所在国:
美国
制造商(研发单位):
太空探索技术公司
制造商所在国:
美国
使用方式:
暂无
卫星简介
星链(Starlink)计划是由太空探索技术公司(SpaceX)提出的一个巨型低轨卫星互联网星座项目,计划在2019年至2024年间在太空搭建由约1.2万颗卫星组成的“星链”网络,其中1584颗将部署在地球上空550千米处的近地轨道,并从2020年开始工作。该卫星仍在工作。